FW2068 Weather Reports


Display with metric or nautical units.
time (UTC)temp
F
wind
direction
speed
MPH
gust
MPH
rain 1hr
in
rain 24hr
in
rain mn
in
humidity
%
barometer
mb
20260510225600 68 110 4.0 5.0 0.00 0.99 0.99 85 1016.9
20260510225056 68 274 2.0 4.0 0.00 0.99 0.99 85 1017.2
20260510224552 68 354 2.0 5.0 0.00 0.99 0.99 84 1017.2
20260510224049 68 60 3.0 8.0 0.00 0.99 0.99 84 1017.1
20260510223547 68 120 4.0 5.0 0.00 0.99 0.99 83 1016.8
20260510223043 68 272 2.0 7.0 0.00 0.99 0.99 83 1017.3
20260510222541 68 280 3.0 6.0 0.00 0.99 0.99 83 1017.7
20260510222037 69 325 3.0 8.0 0.00 0.99 0.99 83 1017.4
20260510221532 69 243 3.0 8.0 0.00 0.99 0.99 82 1017.5
20260510221029 69 266 3.0 10.0 0.00 0.99 0.99 82 1017.2
20260510220526 69 211 2.0 6.0 0.00 0.99 0.99 82 1017.4
20260510220021 69 68 0.0 12.0 0.00 0.99 0.99 82 1017.8
20260510215519 69 330 2.0 13.0 0.00 0.99 0.99 81 1017.5
20260510215017 70 329 7.0 8.0 0.00 0.99 0.99 80 1017.8
20260510214514 71 298 9.0 11.0 0.00 0.99 0.99 78 1017.5
20260510214010 72 359 4.0 11.0 0.00 0.99 0.99 76 1017.6
20260510213507 73 355 8.0 9.0 0.00 0.99 0.99 75 1017.2
20260510213003 75 21 4.0 8.0 0.00 0.99 0.99 73 1016.6
20260510212500 76 279 4.0 10.0 0.00 0.99 0.99 71 1016.6
20260510211957 77 264 4.0 6.0 0.00 0.99 0.99 71 1016.3
20260510211454 76 216 2.0 12.0 0.00 0.99 0.99 69 1016.2
20260510210954 76 182 2.0 7.0 0.00 0.99 0.99 71 1016.2
20260510210450 76 78 3.0 9.0 0.00 0.99 0.99 70 1016.4
20260510205949 76 262 4.0 6.0 0.00 0.99 0.99 70 1016.3
20260510205444 76 180 3.0 6.0 0.00 0.99 0.99 73 1016.4
20260510204941 74 316 7.0 11.0 0.00 0.99 0.99 74 1016.5
20260510204437 74 261 4.0 8.0 0.00 0.99 0.99 75 1016.6
20260510203933 75 167 2.0 8.0 0.00 0.99 0.99 74 1016.8
20260510203431 76 212 4.0 6.0 0.00 0.99 0.99 72 1017.0
20260510202926 76 159 3.0 5.0 0.00 0.99 0.99 71 1016.7
20260510202422 77 61 1.0 3.0 0.00 0.99 0.99 70 1016.7
20260510201918 76 155 2.0 6.0 0.00 0.99 0.99 72 1016.5
20260510201416 76 91 4.0 7.0 0.00 0.99 0.99 72 1016.6
20260510200912 76 131 2.0 9.0 0.00 0.99 0.99 73 1016.5
20260510200412 76 126 5.0 6.0 0.00 0.99 0.99 73 1016.4
20260510195906 75 102 6.0 8.0 0.00 0.99 0.99 73 1016.3
20260510195403 75 117 2.0 5.0 0.00 0.99 0.99 75 1016.3
20260510194857 75 123 4.0 6.0 0.00 0.99 0.99 76 1016.2
20260510194355 74 100 4.0 6.0 0.00 0.99 0.99 77 1016.3
20260510193850 73 2 2.0 4.0 0.00 0.99 0.99 79 1016.4
20260510193345 73 222 3.0 4.0 0.00 0.99 0.99 81 1016.3
20260510192841 71 299 4.0 9.0 0.00 0.99 0.99 83 1016.5
20260510192337 69 110 5.0 11.0 0.00 0.99 0.99 88 1016.6
20260510191833 68 104 6.0 11.0 0.02 0.99 0.99 92 1016.6
20260510191329 67 115 2.0 10.0 0.02 0.99 0.99 94 1016.7
20260510190827 67 91 3.0 8.0 0.00 0.98 0.98 95 1016.8
20260510190325 67 27 6.0 9.0 0.00 0.98 0.98 95 1016.9
20260510185820 66 87 5.0 8.0 0.00 0.98 0.98 95 1016.6
20260510185319 64 105 8.0 11.0 0.00 0.98 0.98 95 1016.6
20260510184815 64 100 8.0 15.0 0.00 0.98 0.98 95 1016.5
20260510184312 64 109 4.0 10.0 0.02 0.98 0.98 95 1016.6
20260510183812 63 95 6.0 11.0 0.21 0.98 0.98 95 1016.1
20260510183308 63 109 10.0 15.0 0.57 0.98 0.98 95 1016.3
20260510182804 64 99 9.0 14.0 0.52 0.92 0.92 95 1016.7
20260510182301 63 96 6.0 17.0 0.57 0.88 0.88 95 1017.3
20260510181757 64 160 3.0 6.0 0.61 0.83 0.83 95 1017.3
20260510181254 64 156 2.0 6.0 0.54 0.79 0.79 95 1017.4
20260510180750 64 33 7.0 7.0 0.33 0.73 0.73 94 1017.2
20260510180248 64 59 5.0 9.0 0.45 0.70 0.70 94 1017.3
20260510175744 64 21 3.0 6.0 0.90 0.67 0.67 94 1017.8
20260510175239 64 118 4.0 11.0 2.06 0.61 0.61 93 1017.0
20260510174737 64 136 4.0 7.0 1.84 0.46 0.46 92 1017.4
20260510174234 65 0 6.0 18.0 0.78 0.27 0.27 89 1017.5
20260510173730 67 244 3.0 8.0 0.07 0.15 0.15 85 1017.7
20260510173226 68 20 4.0 12.0 0.00 0.14 0.14 79 1017.7
20260510172721 69 279 6.0 10.0 0.00 0.14 0.14 76 1017.4
20260510172218 73 207 3.0 16.0 0.00 0.14 0.14 69 1017.2
20260510171715 80 198 3.0 6.0 0.00 0.14 0.14 66 1015.9
20260510171212 80 136 11.0 14.0 0.00 0.14 0.14 66 1015.5
20260510170709 80 122 6.0 12.0 0.00 0.14 0.14 66 1015.5
20260510170205 80 167 5.0 10.0 0.00 0.14 0.14 67 1015.5
20260510165701 80 138 5.0 11.0 0.00 0.14 0.14 66 1015.5
20260510165157 80 146 5.0 9.0 0.00 0.14 0.14 67 1015.2
20260510164655 80 144 12.0 14.0 0.00 0.14 0.14 67 1015.3
20260510164152 82 165 8.0 10.0 0.00 0.14 0.14 65 1015.1
20260510163647 81 139 9.0 18.0 0.00 0.14 0.14 65 1014.7
20260510163143 81 152 14.0 14.0 0.00 0.14 0.14 65 1014.6
20260510162643 80 144 16.0 19.0 0.00 0.14 0.14 64 1014.4
20260510162140 80 128 13.0 18.0 0.00 0.14 0.14 64 1014.4
20260510161636 79 140 12.0 20.0 0.00 0.14 0.14 65 1014.3
20260510161133 80 151 12.0 20.0 0.00 0.14 0.14 65 1013.9
20260510160630 79 150 9.0 18.0 0.00 0.14 0.14 66 1013.9
20260510160130 79 144 15.0 20.0 0.00 0.14 0.14 65 1013.6
20260510155626 79 143 12.0 18.0 0.00 0.14 0.14 66 1013.6
20260510155122 78 155 10.0 20.0 0.00 0.14 0.14 67 1013.6
20260510154618 78 138 9.0 20.0 0.00 0.14 0.14 66 1013.6
20260510154113 78 136 11.0 20.0 0.00 0.14 0.14 67 1013.6
20260510153609 77 155 14.0 20.0 0.00 0.14 0.14 67 1013.6
20260510153106 77 160 11.0 15.0 0.00 0.14 0.14 68 1013.7
20260510152602 76 155 9.0 19.0 0.00 0.14 0.14 69 1013.4
20260510152059 76 184 11.0 16.0 0.00 0.14 0.14 69 1013.5
20260510151555 75 142 14.0 19.0 0.00 0.14 0.14 70 1013.5
20260510151054 75 156 8.0 15.0 0.00 0.14 0.14 73 1013.3
20260510150553 74 111 7.0 16.0 0.00 0.14 0.14 73 1013.0
20260510150049 73 131 15.0 21.0 0.00 0.14 0.14 73 1013.4
20260510145546 73 131 9.0 19.0 0.00 0.14 0.14 74 1013.2
20260510145043 73 156 14.0 20.0 0.00 0.14 0.14 73 1013.5
20260510144539 73 135 13.0 19.0 0.00 0.14 0.14 73 1013.9
20260510144036 73 126 13.0 15.0 0.00 0.14 0.14 75 1014.0
20260510143531 72 147 9.0 17.0 0.00 0.14 0.14 75 1014.1
20260510143028 72 126 9.0 17.0 0.00 0.14 0.14 76 1014.3
20260510142525 71 141 13.0 15.0 0.00 0.14 0.14 77 1014.4
20260510142021 70 151 12.0 15.0 0.00 0.14 0.14 78 1014.6
20260510141518 70 143 7.0 11.0 0.00 0.14 0.14 80 1014.7
20260510141015 69 151 7.0 10.0 0.00 0.14 0.14 81 1014.9
20260510140512 69 142 6.0 8.0 0.00 0.14 0.14 82 1015.2
20260510140011 68 151 4.0 7.0 0.00 0.14 0.14 83 1015.1
20260510135507 68 143 6.0 9.0 0.00 0.14 0.14 83 1015.2
20260510135004 68 68 4.0 10.0 0.00 0.14 0.14 84 1015.1
20260510134501 67 120 4.0 6.0 0.00 0.14 0.14 85 1015.1
20260510133958 67 122 4.0 8.0 0.00 0.14 0.14 85 1014.9
20260510133453 67 123 4.0 6.0 0.00 0.14 0.14 85 1014.8
20260510132949 67 109 4.0 10.0 0.00 0.14 0.14 86 1014.4
20260510132447 67 113 5.0 5.0 0.00 0.14 0.14 86 1014.6
20260510131943 66 91 4.0 8.0 0.00 0.14 0.14 86 1014.8
20260510131441 66 84 5.0 9.0 0.00 0.14 0.14 86 1014.7
20260510130938 66 81 3.0 7.0 0.00 0.14 0.14 87 1014.8
20260510130435 66 133 4.0 6.0 0.00 0.14 0.14 87 1014.7
20260510125932 66 115 6.0 8.0 0.00 0.14 0.14 87 1014.7
20260510125427 66 100 3.0 7.0 0.00 0.14 0.14 88 1014.8
20260510124925 65 129 5.0 6.0 0.00 0.14 0.14 89 1014.5
20260510124421 65 129 2.0 5.0 0.00 0.14 0.14 90 1014.7
20260510123918 65 92 2.0 8.0 0.00 0.14 0.14 90 1014.4
20260510123413 64 97 4.0 8.0 0.00 0.14 0.14 91 1014.2
20260510122910 64 100 6.0 7.0 0.00 0.14 0.14 91 1014.3
20260510122405 64 130 5.0 9.0 0.00 0.14 0.14 91 1014.2
20260510121901 64 108 5.0 8.0 0.00 0.14 0.14 92 1014.4
20260510121359 64 134 4.0 6.0 0.00 0.14 0.14 92 1014.2
20260510120856 64 92 6.0 6.0 0.00 0.14 0.14 93 1014.1
20260510120354 64 138 5.0 6.0 0.00 0.14 0.14 93 1014.2
20260510115849 64 125 5.0 8.0 0.00 0.14 0.14 93 1014.1
20260510115346 64 148 0.0 3.0 0.00 0.14 0.14 92 1014.3
20260510114841 64 78 2.0 4.0 0.00 0.14 0.14 92 1014.1
20260510114339 64 128 5.0 6.0 0.00 0.14 0.14 92 1014.1
20260510113839 64 98 3.0 3.0 0.00 0.14 0.14 92 1014.3
20260510113336 64 58 2.0 4.0 0.00 0.14 0.14 91 1014.0
20260510112832 64 256 0.0 3.0 0.00 0.14 0.14 91 1014.1
20260510112330 65 79 3.0 4.0 0.00 0.14 0.14 91 1014.1
20260510111825 65 101 4.0 5.0 0.00 0.14 0.14 91 1013.9
20260510111323 65 71 2.0 6.0 0.00 0.14 0.14 91 1013.6
20260510110822 65 93 4.0 7.0 0.00 0.14 0.14 91 1013.5
20260510110321 65 106 3.0 6.0 0.00 0.14 0.14 90 1013.3
20260510105816 65 92 3.0 7.0 0.00 0.14 0.14 90 1013.2
20260510105316 65 108 5.0 11.0 0.00 0.14 0.14 90 1013.1
20260510104812 65 116 3.0 8.0 0.00 0.14 0.14 91 1013.2
20260510104310 65 101 5.0 9.0 0.00 0.14 0.14 91 1013.1
20260510103806 65 111 7.0 10.0 0.00 0.14 0.14 92 1013.4
20260510103303 65 80 5.0 8.0 0.02 0.14 0.14 92 1013.2
20260510102803 65 119 6.0 14.0 0.28 0.14 0.14 91 1012.9
20260510102259 65 95 8.0 11.0 0.71 0.13 0.13 90 1013.1
20260510101757 66 109 7.0 10.0 0.50 0.08 0.08 88 1014.0
20260510101255 67 146 4.0 6.0 0.09 0.02 0.02 86 1015.1
20260510100751 67 277 4.0 6.0 0.00 0.00 0.00 84 1014.9
20260510100249 67 337 2.0 10.0 0.00 0.00 0.00 83 1014.9
20260510095744 68 35 3.0 8.0 0.00 0.00 0.00 81 1014.2
20260510095239 69 56 5.0 10.0 0.00 0.00 0.00 80 1013.9
20260510094738 70 56 5.0 11.0 0.00 0.00 0.00 78 1013.6
20260510094234 71 343 2.0 15.0 0.00 0.00 0.00 78 1013.4
20260510093730 71 289 2.0 9.0 0.00 0.00 0.00 83 1013.6
20260510093228 74 334 4.0 5.0 0.00 0.00 0.00 92 1013.7
20260510092723 73 176 2.0 4.0 0.00 0.00 0.00 92 1013.4
20260510092219 73 329 3.0 6.0 0.00 0.00 0.00 92 1013.2
20260510091715 73 323 3.0 7.0 0.00 0.00 0.00 92 1013.1
20260510091212 73 19 0.0 3.0 0.00 0.00 0.00 91 1012.8
20260510090708 73 91 2.0 4.0 0.00 0.00 0.00 91 1012.5
20260510090205 73 62 2.0 4.0 0.00 0.00 0.00 91 1012.3
20260510085700 73 96 2.0 3.0 0.00 0.00 0.00 91 1012.3
20260510085155 73 332 2.0 5.0 0.00 0.00 0.00 91 1012.1
20260510084652 73 132 0.0 2.0 0.00 0.00 0.00 91 1012.0
20260510084149 73 156 2.0 4.0 0.00 0.00 0.00 91 1011.9
20260510083645 72 266 0.0 2.0 0.00 0.00 0.00 91 1012.0
20260510083142 72 317 2.0 2.0 0.00 0.00 0.00 91 1011.8
20260510082639 72 134 2.0 2.0 0.00 0.00 0.00 91 1011.2
20260510082134 72 93 2.0 2.0 0.00 0.00 0.00 90 1011.0
20260510081629 72 87 2.0 3.0 0.00 0.00 0.00 90 1011.0
20260510081126 72 121 2.0 4.0 0.00 0.00 0.00 90 1010.6
20260510080625 73 126 4.0 5.0 0.00 0.00 0.00 90 1010.5
20260510080122 73 94 3.0 4.0 0.00 0.00 0.00 89 1010.6
20260510075619 73 135 1.0 6.0 0.00 0.00 0.00 89 1010.6
20260510075116 73 108 5.0 5.0 0.00 0.00 0.00 88 1010.6
20260510074613 73 106 3.0 5.0 0.00 0.00 0.00 88 1010.4
20260510074109 73 119 5.0 5.0 0.00 0.00 0.00 88 1010.5
20260510073605 74 108 2.0 5.0 0.00 0.00 0.00 87 1010.7
20260510073102 73 99 3.0 4.0 0.00 0.00 0.00 87 1010.7
20260510072559 73 126 2.0 2.0 0.00 0.00 0.00 87 1010.9
20260510072054 73 191 2.0 4.0 0.00 0.00 0.00 86 1011.1
20260510071551 73 161 0.0 3.0 0.00 0.00 0.00 86 1011.3
20260510071049 74 82 2.0 2.0 0.00 0.00 0.00 86 1011.3
20260510070545 74 316 0.0 3.0 0.00 0.00 0.00 85 1011.4
20260510070042 74 266 0.0 2.0 0.00 0.00 0.00 85 1011.4
20260510065538 74 344 0.0 2.0 0.00 0.00 0.00 85 1011.3
20260510065035 74 309 0.0 1.0 0.00 0.00 0.00 84 1011.1
20260510064531 74 209 0.0 3.0 0.00 0.00 0.00 84 1011.2
20260510064028 74 316 3.0 4.0 0.00 0.00 0.00 84 1011.0
20260510063525 74 356 0.0 2.0 0.00 0.00 0.00 83 1010.6
20260510063022 74 66 2.0 4.0 0.00 0.00 0.00 83 1010.2
20260510062518 74 97 6.0 6.0 0.00 0.00 0.00 84 1009.7
20260510062013 74 129 8.0 10.0 0.00 0.00 0.00 84 1009.7
20260510061510 74 133 8.0 8.0 0.00 0.00 0.00 83 1009.5
20260510061007 74 142 7.0 10.0 0.00 0.00 0.00 83 1009.6
20260510060503 74 135 4.0 10.0 0.00 0.00 0.00 83 1009.7
20260510055959 74 126 6.0 6.0 0.00 0.00 0.00 84 1009.6
20260510055455 74 112 5.0 9.0 0.00 0.00 0.00 84 1009.8
20260510054954 74 130 4.0 10.0 0.00 0.00 0.00 84 1009.6
20260510054449 74 130 5.0 10.0 0.00 0.00 0.00 84 1009.6
20260510053944 74 133 6.0 10.0 0.00 0.00 0.00 84 1009.6
20260510053440 74 122 4.0 7.0 0.00 0.00 0.00 84 1009.8
20260510052936 74 117 5.0 6.0 0.00 0.00 0.00 84 1009.8
20260510052432 74 111 4.0 7.0 0.00 0.00 0.00 84 1009.8
20260510051928 74 107 4.0 7.0 0.00 0.00 0.00 84 1009.6
20260510051425 74 131 6.0 9.0 0.00 0.00 0.00 85 1009.6
20260510050921 74 123 4.0 9.0 0.00 0.00 0.00 85 1009.5
20260510050418 74 94 4.0 9.0 0.00 0.00 0.00 85 1009.4
20260510045915 75 123 4.0 9.0 0.00 0.00 0.00 84 1009.3
20260510045412 75 97 7.0 10.0 0.00 0.00 0.00 85 1009.2
20260510044909 75 91 2.0 8.0 0.00 0.00 0.00 84 1009.0
20260510044406 75 106 4.0 7.0 0.00 0.00 0.00 84 1009.0
20260510043902 75 132 5.0 9.0 0.00 0.00 0.00 83 1009.1
20260510043358 75 134 4.0 6.0 0.00 0.00 0.00 82 1009.5
20260510042857 75 132 4.0 7.0 0.00 0.00 0.00 82 1009.3
20260510042352 76 140 5.0 5.0 0.00 0.00 0.00 81 1009.3
20260510041848 76 113 5.0 6.0 0.00 0.00 0.00 80 1009.3
20260510041346 76 119 7.0 7.0 0.00 0.00 0.00 80 1009.3
20260510040843 76 119 4.0 9.0 0.00 0.00 0.00 79 1009.3
20260510040339 76 118 5.0 7.0 0.00 0.00 0.00 78 1009.2
20260510035835 76 128 3.0 6.0 0.00 0.00 0.00 77 1009.1
20260510035331 76 125 4.0 7.0 0.00 0.00 0.00 76 1009.3
20260510034827 76 122 4.0 7.0 0.00 0.00 0.00 74 1009.3
20260510034325 76 106 3.0 6.0 0.00 0.00 0.00 74 1009.4
20260510033821 76 108 2.0 5.0 0.00 0.00 0.00 74 1009.3
20260510033318 76 122 3.0 5.0 0.00 0.00 0.00 73 1009.2
20260510032815 76 106 4.0 4.0 0.00 0.00 0.00 73 1009.3
20260510032311 76 134 4.0 5.0 0.00 0.00 0.00 74 1009.3
20260510031807 76 94 2.0 5.0 0.00 0.00 0.00 73 1009.2
20260510031303 77 85 2.0 4.0 0.00 0.00 0.00 73 1009.4
20260510030802 77 115 2.0 4.0 0.00 0.00 0.00 72 1009.2
20260510030300 77 80 3.0 5.0 0.00 0.00 0.00 71 1009.2
20260510025757 77 52 2.0 6.0 0.00 0.00 0.00 71 1009.3
20260510025255 77 99 4.0 4.0 0.00 0.00 0.00 70 1009.0
20260510024751 77 116 3.0 4.0 0.00 0.00 0.00 70 1009.1
20260510024248 77 91 4.0 5.0 0.00 0.00 0.00 69 1009.3
20260510023744 77 94 3.0 5.0 0.00 0.00 0.00 69 1009.2
20260510023241 78 103 2.0 4.0 0.00 0.00 0.00 68 1009.0
20260510022737 78 113 2.0 6.0 0.00 0.00 0.00 67 1009.0
20260510022237 78 91 2.0 4.0 0.00 0.00 0.00 66 1009.1
20260510021732 78 106 2.0 4.0 0.00 0.00 0.00 66 1009.0
20260510021230 78 112 3.0 4.0 0.00 0.00 0.00 65 1009.0
20260510020730 79 106 3.0 4.0 0.00 0.00 0.00 65 1008.9
20260510020225 79 109 0.0 4.0 0.00 0.00 0.00 64 1008.6
20260510015721 79 95 3.0 4.0 0.00 0.00 0.00 64 1008.9
20260510015218 79 148 0.0 3.0 0.00 0.00 0.00 64 1008.7
20260510014713 80 148 2.0 3.0 0.00 0.00 0.00 63 1008.5
20260510014211 80 114 0.0 4.0 0.00 0.00 0.00 63 1008.4
20260510013712 80 98 1.0 4.0 0.00 0.00 0.00 62 1008.6
20260510013208 81 107 3.0 4.0 0.00 0.00 0.00 61 1008.4
20260510012707 81 83 1.0 5.0 0.00 0.00 0.00 61 1008.3
20260510012203 81 101 2.0 7.0 0.00 0.00 0.00 61 1008.4
20260510011658 82 129 4.0 5.0 0.00 0.00 0.00 60 1008.2
20260510011154 82 111 3.0 5.0 0.00 0.00 0.00 59 1008.3
20260510010650 83 116 3.0 4.0 0.00 0.00 0.00 58 1008.1
20260510010147 84 116 2.0 5.0 0.00 0.00 0.00 57 1008.1
20260510005643 84 77 2.0 5.0 0.00 0.00 0.00 56 1008.2
20260510005140 85 118 2.0 3.0 0.00 0.00 0.00 56 1008.2
20260510004639 85 107 3.0 6.0 0.00 0.00 0.00 56 1008.0
20260510004137 86 104 2.0 4.0 0.00 0.00 0.00 55 1008.1
20260510003633 86 114 4.0 7.0 0.00 0.00 0.00 54 1008.0
20260510003129 86 107 4.0 6.0 0.00 0.00 0.00 54 1008.1
20260510002629 86 92 3.0 6.0 0.00 0.00 0.00 53 1008.1
20260510002126 87 106 2.0 4.0 0.00 0.00 0.00 52 1008.1
20260510001623 88 114 2.0 5.0 0.00 0.00 0.00 49 1008.0
20260510001122 89 322 1.0 4.0 0.00 0.00 0.00 49 1007.9
20260510000622 89 123 0.0 2.0 0.00 0.00 0.00 48 1007.9
20260510000119 90 99 1.0 4.0 0.00 0.00 0.00 47 1007.9
20260509235616 89 94 0.0 4.0 0.00 0.00 0.00 48 1007.8
20260509235112 89 99 0.0 3.0 0.00 0.00 0.00 48 1007.9
20260509234608 89 263 1.0 4.0 0.00 0.00 0.00 48 1007.8
20260509234107 89 135 2.0 4.0 0.00 0.00 0.00 48 1007.9
20260509233604 89 107 2.0 4.0 0.00 0.00 0.00 48 1007.7
20260509233101 90 124 2.0 5.0 0.00 0.00 0.00 47 1007.7
20260509232557 91 5 1.0 4.0 0.00 0.00 0.00 43 1007.8
20260509232054 90 112 2.0 4.0 0.00 0.00 0.00 44 1007.9
20260509231550 92 19 2.0 2.0 0.00 0.00 0.00 43 1007.9
20260509231048 91 51 1.0 1.0 0.00 0.00 0.00 45 1007.9
20260509230545 90 96 2.0 4.0 0.00 0.00 0.00 44 1007.9
20260509230042 91 279 2.0 3.0 0.00 0.00 0.00 44 1007.9